| time (UTC) | temp C | wind direction | speed KPH | gust KPH | rain 1hr cm | rain 24hr cm | rain mn cm | humidity % | barometer mb |
| 20260904044003 | 16 | 257 | 1.6 | 6.4 | 0.10 | 0.10 | 0.10 | 92 | 1013.6 |
| 20260904043503 | 16 | 269 | 1.6 | 4.8 | 0.10 | 0.10 | 0.10 | 92 | 1013.6 |
| 20260904043003 | 16 | 282 | 1.6 | 4.8 | 0.10 | 0.10 | 0.10 | 92 | 1013.6 |
| 20260904042523 | 16 | 291 | 1.6 | 4.8 | 0.10 | 0.10 | 0.10 | 91 | 1013.6 |
| 20260904042002 | 16 | 294 | 0.0 | 3.2 | 0.10 | 0.10 | 0.10 | 91 | 1013.6 |
| 20260904041524 | 16 | 295 | 0.0 | 3.2 | 0.10 | 0.10 | 0.10 | 91 | 1013.6 |
| 20260904041002 | 16 | 293 | 0.0 | 4.8 | 0.10 | 0.10 | 0.10 | 91 | 1013.6 |
| 20260904040524 | 16 | 290 | 0.0 | 4.8 | 0.08 | 0.08 | 0.08 | 91 | 1013.6 |
| 20260904040003 | 17 | 307 | 0.0 | 6.4 | 0.08 | 0.08 | 0.08 | 91 | 1013.6 |
| 20260904035502 | 17 | 293 | 1.6 | 6.4 | 0.05 | 0.05 | 0.05 | 91 | 1013.6 |
| 20260904035002 | 17 | 273 | 1.6 | 8.0 | 0.05 | 0.05 | 0.05 | 91 | 1013.6 |
| 20260904034502 | 17 | 261 | 1.6 | 8.0 | 0.03 | 0.03 | 0.03 | 90 | 1013.6 |
| 20260904034002 | 17 | 247 | 1.6 | 9.7 | 0.00 | 0.00 | 0.00 | 90 | 1013.6 |
| 20260904033503 | 17 | 230 | 1.6 | 9.7 | 0.00 | 0.00 | 0.00 | 90 | 1013.6 |
| 20260904033002 | 17 | 201 | 3.2 | 9.7 | 0.00 | 0.00 | 0.00 | 90 | 1013.6 |
| 20260904032503 | 17 | 202 | 3.2 | 12.9 | 0.00 | 0.00 | 0.00 | 90 | 1013.6 |
| 20260904032003 | 17 | 222 | 3.2 | 12.9 | 0.00 | 0.00 | 0.00 | 89 | 1013.6 |
| 20260904031503 | 17 | 242 | 3.2 | 11.3 | 0.00 | 0.00 | 0.00 | 89 | 1013.6 |
| 20260904031003 | 17 | 242 | 4.8 | 12.9 | 0.00 | 0.00 | 0.00 | 89 | 1013.6 |
| 20260904030503 | 17 | 232 | 4.8 | 12.9 | 0.00 | 0.00 | 0.00 | 88 | 1013.6 |
| 20260904030024 | 17 | 205 | 4.8 | 9.7 | 0.00 | 0.00 | 0.00 | 88 | 1013.6 |
| 20260904025503 | 17 | 209 | 4.8 | 11.3 | 0.00 | 0.00 | 0.00 | 88 | 1013.6 |
| 20260904025002 | 17 | 232 | 3.2 | 11.3 | 0.00 | 0.00 | 0.00 | 88 | 1013.6 |
| 20260904024503 | 17 | 239 | 1.6 | 6.4 | 0.00 | 0.00 | 0.00 | 88 | 1013.6 |
| 20260904024003 | 17 | 240 | 1.6 | 6.4 | 0.00 | 0.00 | 0.00 | 88 | 1013.6 |
| 20260904023503 | 17 | 244 | 3.2 | 6.4 | 0.00 | 0.00 | 0.00 | 87 | 1013.6 |
| 20260904023003 | 17 | 251 | 4.8 | 12.9 | 0.00 | 0.00 | 0.00 | 87 | 1013.6 |
| 20260904022503 | 17 | 257 | 3.2 | 12.9 | 0.00 | 0.00 | 0.00 | 87 | 1013.6 |
| 20260904022003 | 17 | 265 | 1.6 | 9.7 | 0.00 | 0.00 | 0.00 | 87 | 1013.6 |
| 20260904021503 | 17 | 272 | 1.6 | 6.4 | 0.00 | 0.00 | 0.00 | 87 | 1013.6 |
| 20260904021003 | 17 | 256 | 1.6 | 6.4 | 0.00 | 0.00 | 0.00 | 86 | 1013.6 |
| 20260904020502 | 17 | 249 | 3.2 | 11.3 | 0.00 | 0.00 | 0.00 | 86 | 1013.6 |
| 20260904020003 | 18 | 252 | 3.2 | 11.3 | 0.00 | 0.00 | 0.00 | 86 | 1013.6 |
| 20260904015503 | 18 | 259 | 4.8 | 12.9 | 0.00 | 0.00 | 0.00 | 85 | 1013.6 |
| 20260904015003 | 18 | 261 | 4.8 | 12.9 | 0.00 | 0.00 | 0.00 | 85 | 1013.6 |
| 20260904014503 | 18 | 258 | 3.2 | 12.9 | 0.00 | 0.00 | 0.00 | 84 | 1013.6 |
| 20260904014003 | 18 | 259 | 3.2 | 14.5 | 0.00 | 0.00 | 0.00 | 84 | 1013.6 |
| 20260904013524 | 18 | 266 | 3.2 | 14.5 | 0.00 | 0.00 | 0.00 | 83 | 1013.6 |
| 20260904013003 | 18 | 261 | 4.8 | 14.5 | 0.00 | 0.00 | 0.00 | 83 | 1013.6 |
| 20260904012503 | 18 | 259 | 4.8 | 14.5 | 0.00 | 0.00 | 0.00 | 82 | 1013.6 |
| 20260904012024 | 18 | 266 | 3.2 | 12.9 | 0.00 | 0.00 | 0.00 | 81 | 1013.6 |
| 20260904011503 | 18 | 262 | 4.8 | 14.5 | 0.00 | 0.00 | 0.00 | 80 | 1013.6 |
| 20260904011003 | 18 | 257 | 6.4 | 20.9 | 0.00 | 0.00 | 0.00 | 80 | 1013.6 |
| 20260904010533 | 19 | 257 | 4.8 | 20.9 | 0.00 | 0.00 | 0.00 | 79 | 1013.6 |
| 20260904010002 | 19 | 265 | 4.8 | 17.7 | 0.00 | 0.00 | 0.00 | 78 | 1013.6 |
| 20260904005524 | 20 | 280 | 3.2 | 12.9 | 0.00 | 0.00 | 0.00 | 77 | 1013.6 |
| 20260904005003 | 20 | 286 | 3.2 | 11.3 | 0.00 | 0.00 | 0.00 | 76 | 1013.6 |
| 20260904004524 | 20 | 280 | 3.2 | 14.5 | 0.00 | 0.00 | 0.00 | 76 | 1013.6 |
| 20260904004003 | 20 | 274 | 4.8 | 14.5 | 0.00 | 0.00 | 0.00 | 74 | 1013.6 |
| 20260904003503 | 20 | 276 | 4.8 | 14.5 | 0.00 | 0.00 | 0.00 | 73 | 1013.6 |
| 20260904003003 | 20 | 278 | 3.2 | 14.5 | 0.00 | 0.00 | 0.00 | 72 | 1013.6 |
| 20260904002502 | 21 | 263 | 3.2 | 12.9 | 0.00 | 0.00 | 0.00 | 71 | 1013.6 |
| 20260904002003 | 21 | 262 | 4.8 | 16.1 | 0.00 | 0.00 | 0.00 | 71 | 1013.6 |
| 20260904001502 | 21 | 275 | 4.8 | 16.1 | 0.00 | 0.00 | 0.00 | 70 | 1013.6 |
| 20260904001003 | 21 | 287 | 4.8 | 14.5 | 0.00 | 0.00 | 0.00 | 71 | 1013.6 |
| 20260904000524 | 21 | 279 | 4.8 | 14.5 | 0.00 | 0.00 | 0.00 | 71 | 1013.6 |
| 20260904000003 | 21 | 274 | 4.8 | 14.5 | 0.00 | 0.00 | 0.00 | 71 | 1013.6 |
| 20260903235503 | 21 | 279 | 4.8 | 17.7 | 0.00 | 0.00 | 0.00 | 70 | 1013.6 |
| 20260903235003 | 21 | 272 | 4.8 | 17.7 | 0.00 | 0.00 | 0.00 | 69 | 1013.6 |
| 20260903234503 | 21 | 267 | 4.8 | 12.9 | 0.00 | 0.00 | 0.00 | 69 | 1013.6 |
| 20260903234002 | 22 | 283 | 4.8 | 12.9 | 0.00 | 0.00 | 0.00 | 68 | 1013.6 |
| 20260903233503 | 22 | 298 | 4.8 | 14.5 | 0.00 | 0.00 | 0.00 | 69 | 1013.6 |
| 20260903233003 | 22 | 293 | 4.8 | 14.5 | 0.00 | 0.00 | 0.00 | 68 | 1013.6 |
| 20260903232524 | 22 | 280 | 4.8 | 14.5 | 0.00 | 0.00 | 0.00 | 69 | 1013.6 |
| 20260903232024 | 22 | 273 | 4.8 | 14.5 | 0.00 | 0.00 | 0.00 | 68 | 1013.6 |
| 20260903231503 | 22 | 313 | 4.8 | 20.9 | 0.00 | 0.00 | 0.00 | 68 | 1013.6 |
| 20260903231003 | 22 | 303 | 4.8 | 20.9 | 0.00 | 0.00 | 0.00 | 68 | 1013.6 |
| 20260903230503 | 22 | 272 | 3.2 | 14.5 | 0.00 | 0.00 | 0.00 | 68 | 1013.6 |
| 20260903230003 | 22 | 307 | 3.2 | 12.9 | 0.00 | 0.00 | 0.00 | 68 | 1013.6 |
| 20260903225503 | 22 | 289 | 3.2 | 14.5 | 0.00 | 0.00 | 0.00 | 68 | 1013.6 |
| 20260903225003 | 22 | 261 | 4.8 | 14.5 | 0.00 | 0.00 | 0.00 | 68 | 1013.6 |
| 20260903224502 | 22 | 252 | 6.4 | 14.5 | 0.00 | 0.00 | 0.00 | 67 | 1013.6 |
| 20260903224003 | 22 | 257 | 6.4 | 14.5 | 0.00 | 0.00 | 0.00 | 67 | 1013.6 |
| 20260903223502 | 22 | 261 | 6.4 | 19.3 | 0.00 | 0.00 | 0.00 | 67 | 1013.6 |
| 20260903223003 | 22 | 276 | 6.4 | 19.3 | 0.00 | 0.00 | 0.00 | 66 | 1013.6 |
| 20260903222503 | 22 | 312 | 4.8 | 17.7 | 0.00 | 0.00 | 0.00 | 66 | 1013.6 |
| 20260903222003 | 22 | 308 | 4.8 | 12.9 | 0.00 | 0.00 | 0.00 | 67 | 1013.6 |
| 20260903221503 | 22 | 291 | 4.8 | 12.9 | 0.00 | 0.00 | 0.00 | 66 | 1013.6 |
| 20260903221003 | 22 | 286 | 6.4 | 14.5 | 0.00 | 0.00 | 0.00 | 67 | 1013.6 |
| 20260903220524 | 22 | 278 | 4.8 | 14.5 | 0.00 | 0.00 | 0.00 | 67 | 1013.6 |
| 20260903220024 | 22 | 258 | 4.8 | 17.7 | 0.00 | 0.00 | 0.00 | 67 | 1013.6 |
| 20260903215503 | 22 | 257 | 4.8 | 17.7 | 0.00 | 0.00 | 0.00 | 67 | 1013.6 |
| 20260903215003 | 22 | 267 | 3.2 | 16.1 | 0.00 | 0.00 | 0.00 | 67 | 1013.6 |
| 20260903214503 | 22 | 268 | 3.2 | 11.3 | 0.00 | 0.00 | 0.00 | 67 | 1013.6 |
| 20260903214003 | 22 | 279 | 3.2 | 11.3 | 0.00 | 0.00 | 0.00 | 67 | 1014.4 |
| 20260903213503 | 22 | 310 | 3.2 | 12.9 | 0.00 | 0.00 | 0.00 | 68 | 1014.4 |
| 20260903213003 | 22 | 286 | 4.8 | 14.5 | 0.00 | 0.00 | 0.00 | 69 | 1014.4 |
| 20260903212503 | 21 | 296 | 4.8 | 17.7 | 0.00 | 0.00 | 0.00 | 70 | 1014.4 |
| 20260903212003 | 21 | 307 | 4.8 | 17.7 | 0.00 | 0.00 | 0.00 | 70 | 1014.4 |
| 20260903211503 | 21 | 289 | 4.8 | 12.9 | 0.00 | 0.00 | 0.00 | 71 | 1014.4 |
| 20260903211003 | 21 | 301 | 3.2 | 12.9 | 0.00 | 0.00 | 0.00 | 71 | 1014.4 |
| 20260903210503 | 21 | 305 | 3.2 | 8.0 | 0.00 | 0.00 | 0.00 | 71 | 1014.4 |
| 20260903210003 | 21 | 261 | 3.2 | 11.3 | 0.00 | 0.00 | 0.00 | 72 | 1014.4 |
| 20260903205503 | 20 | 258 | 3.2 | 11.3 | 0.00 | 0.00 | 0.00 | 71 | 1014.4 |
| 20260903205024 | 20 | 264 | 3.2 | 11.3 | 0.00 | 0.00 | 0.00 | 71 | 1014.4 |
| 20260903204503 | 20 | 253 | 6.4 | 14.5 | 0.00 | 0.00 | 0.00 | 71 | 1014.4 |
| 20260903204003 | 20 | 253 | 6.4 | 14.5 | 0.00 | 0.00 | 0.00 | 70 | 1014.4 |
| 20260903203503 | 21 | 256 | 6.4 | 16.1 | 0.00 | 0.00 | 0.00 | 70 | 1014.4 |
| 20260903203024 | 21 | 258 | 4.8 | 16.1 | 0.00 | 0.00 | 0.00 | 69 | 1014.4 |
| 20260903202503 | 21 | 255 | 4.8 | 16.1 | 0.00 | 0.00 | 0.00 | 69 | 1014.4 |
| 20260903202003 | 21 | 256 | 3.2 | 16.1 | 0.00 | 0.00 | 0.00 | 68 | 1014.4 |
| 20260903201503 | 21 | 251 | 3.2 | 12.9 | 0.00 | 0.00 | 0.00 | 68 | 1014.4 |
| 20260903201003 | 21 | 253 | 4.8 | 12.9 | 0.00 | 0.00 | 0.00 | 68 | 1014.4 |
| 20260903200503 | 21 | 256 | 4.8 | 17.7 | 0.00 | 0.00 | 0.00 | 68 | 1014.4 |
| 20260903200003 | 21 | 249 | 3.2 | 17.7 | 0.00 | 0.00 | 0.00 | 69 | 1014.4 |
| 20260903195503 | 21 | 258 | 3.2 | 12.9 | 0.00 | 0.00 | 0.00 | 69 | 1014.4 |
| 20260903195003 | 21 | 271 | 3.2 | 9.7 | 0.00 | 0.00 | 0.00 | 70 | 1014.4 |
| 20260903194524 | 20 | 249 | 4.8 | 14.5 | 0.00 | 0.00 | 0.00 | 71 | 1014.4 |
| 20260903194003 | 20 | 247 | 6.4 | 14.5 | 0.00 | 0.00 | 0.00 | 69 | 1015.0 |
| 20260903193503 | 20 | 247 | 3.2 | 11.3 | 0.00 | 0.00 | 0.00 | 70 | 1015.0 |
| 20260903193003 | 20 | 250 | 3.2 | 14.5 | 0.00 | 0.00 | 0.00 | 69 | 1015.0 |
| 20260903192503 | 20 | 252 | 4.8 | 17.7 | 0.00 | 0.00 | 0.00 | 69 | 1015.0 |
| 20260903192024 | 20 | 252 | 3.2 | 17.7 | 0.00 | 0.00 | 0.00 | 68 | 1015.0 |
| 20260903191503 | 20 | 266 | 3.2 | 9.7 | 0.00 | 0.00 | 0.00 | 68 | 1015.0 |
| 20260903191003 | 20 | 276 | 4.8 | 9.7 | 0.00 | 0.00 | 0.00 | 68 | 1015.0 |
| 20260903190503 | 20 | 276 | 3.2 | 9.7 | 0.00 | 0.00 | 0.00 | 69 | 1015.0 |
| 20260903190003 | 20 | 232 | 3.2 | 9.7 | 0.00 | 0.00 | 0.00 | 69 | 1015.0 |
| 20260903185503 | 20 | 208 | 4.8 | 14.5 | 0.00 | 0.00 | 0.00 | 69 | 1015.0 |
| 20260903185003 | 20 | 240 | 4.8 | 14.5 | 0.00 | 0.00 | 0.00 | 69 | 1015.0 |
| 20260903184524 | 20 | 266 | 4.8 | 14.5 | 0.00 | 0.00 | 0.00 | 69 | 1015.0 |
| 20260903184003 | 20 | 250 | 4.8 | 12.9 | 0.00 | 0.00 | 0.00 | 69 | 1015.0 |
| 20260903183503 | 20 | 244 | 4.8 | 12.9 | 0.00 | 0.00 | 0.00 | 69 | 1015.0 |
| 20260903183003 | 20 | 252 | 4.8 | 12.9 | 0.00 | 0.00 | 0.00 | 69 | 1015.0 |
| 20260903182524 | 20 | 239 | 4.8 | 17.7 | 0.00 | 0.00 | 0.00 | 69 | 1015.0 |
| 20260903182024 | 20 | 195 | 6.4 | 17.7 | 0.00 | 0.00 | 0.00 | 70 | 1015.0 |
| 20260903181503 | 19 | 187 | 4.8 | 14.5 | 0.00 | 0.00 | 0.00 | 71 | 1015.0 |
| 20260903181024 | 19 | 187 | 4.8 | 14.5 | 0.00 | 0.00 | 0.00 | 71 | 1015.0 |
| 20260903180503 | 19 | 202 | 4.8 | 14.5 | 0.00 | 0.00 | 0.00 | 72 | 1015.0 |
| 20260903180003 | 18 | 230 | 4.8 | 11.3 | 0.00 | 0.00 | 0.00 | 73 | 1015.0 |
| 20260903175503 | 18 | 208 | 4.8 | 12.9 | 0.00 | 0.00 | 0.00 | 73 | 1015.0 |
| 20260903175003 | 18 | 204 | 4.8 | 12.9 | 0.00 | 0.00 | 0.00 | 74 | 1015.0 |
| 20260903174503 | 18 | 210 | 4.8 | 12.9 | 0.00 | 0.00 | 0.00 | 75 | 1015.0 |
| 20260903174003 | 18 | 222 | 3.2 | 12.9 | 0.00 | 0.00 | 0.00 | 75 | 1015.2 |
| 20260903173503 | 17 | 200 | 4.8 | 12.9 | 0.00 | 0.00 | 0.00 | 76 | 1015.2 |
| 20260903173003 | 17 | 176 | 4.8 | 12.9 | 0.00 | 0.00 | 0.00 | 76 | 1015.2 |
| 20260903172503 | 17 | 177 | 4.8 | 11.3 | 0.00 | 0.00 | 0.00 | 77 | 1015.2 |
| 20260903172003 | 17 | 184 | 4.8 | 12.9 | 0.00 | 0.00 | 0.00 | 77 | 1015.2 |
| 20260903171524 | 17 | 181 | 6.4 | 12.9 | 0.00 | 0.00 | 0.00 | 77 | 1015.2 |
| 20260903171003 | 17 | 189 | 6.4 | 11.3 | 0.00 | 0.00 | 0.00 | 78 | 1015.2 |
| 20260903170503 | 17 | 187 | 4.8 | 11.3 | 0.00 | 0.00 | 0.00 | 79 | 1015.2 |
| 20260903170024 | 17 | 171 | 4.8 | 11.3 | 0.00 | 0.00 | 0.00 | 79 | 1015.2 |
| 20260903165503 | 16 | 172 | 4.8 | 9.7 | 0.00 | 0.00 | 0.00 | 80 | 1015.2 |
| 20260903165003 | 16 | 171 | 4.8 | 11.3 | 0.00 | 0.00 | 0.00 | 81 | 1015.2 |
| 20260903164503 | 16 | 160 | 4.8 | 14.5 | 0.00 | 0.00 | 0.00 | 81 | 1015.2 |
| 20260903164003 | 16 | 158 | 4.8 | 14.5 | 0.00 | 0.00 | 0.00 | 82 | 1015.3 |
| 20260903163503 | 16 | 191 | 4.8 | 9.7 | 0.00 | 0.00 | 0.00 | 82 | 1015.3 |
| 20260903163024 | 16 | 196 | 6.4 | 14.5 | 0.00 | 0.00 | 0.00 | 82 | 1015.3 |
| 20260903162503 | 16 | 197 | 6.4 | 14.5 | 0.00 | 0.00 | 0.00 | 82 | 1015.3 |
| 20260903162003 | 16 | 203 | 6.4 | 9.7 | 0.00 | 0.00 | 0.00 | 83 | 1015.3 |
| 20260903161503 | 16 | 191 | 4.8 | 12.9 | 0.00 | 0.00 | 0.00 | 83 | 1015.3 |
| 20260903161003 | 16 | 171 | 4.8 | 12.9 | 0.00 | 0.00 | 0.00 | 84 | 1015.3 |
| 20260903160503 | 16 | 182 | 6.4 | 11.3 | 0.00 | 0.00 | 0.00 | 84 | 1015.3 |
| 20260903160003 | 16 | 195 | 4.8 | 9.7 | 0.00 | 0.00 | 0.00 | 84 | 1015.4 |
| 20260903155503 | 16 | 180 | 4.8 | 9.7 | 0.00 | 0.00 | 0.00 | 85 | 1015.4 |
| 20260903155003 | 16 | 165 | 3.2 | 9.7 | 0.00 | 0.00 | 0.00 | 86 | 1015.4 |
| 20260903154503 | 16 | 163 | 4.8 | 11.3 | 0.00 | 0.00 | 0.00 | 86 | 1015.4 |
| 20260903154003 | 16 | 169 | 4.8 | 11.3 | 0.00 | 0.00 | 0.00 | 87 | 1015.4 |
| 20260903153524 | 15 | 174 | 3.2 | 8.0 | 0.00 | 0.00 | 0.00 | 88 | 1015.4 |
| 20260903153003 | 15 | 178 | 3.2 | 9.7 | 0.00 | 0.00 | 0.00 | 89 | 1015.4 |
| 20260903152524 | 15 | 169 | 3.2 | 9.7 | 0.00 | 0.00 | 0.00 | 90 | 1015.4 |
| 20260903152024 | 15 | 162 | 3.2 | 9.7 | 0.00 | 0.00 | 0.00 | 90 | 1015.4 |
| 20260903151503 | 15 | 166 | 1.6 | 9.7 | 0.00 | 0.00 | 0.00 | 90 | 1015.4 |
| 20260903151003 | 15 | 167 | 1.6 | 6.4 | 0.00 | 0.00 | 0.00 | 91 | 1015.4 |
| 20260903150503 | 15 | 167 | 1.6 | 8.0 | 0.00 | 0.00 | 0.00 | 91 | 1015.4 |
| 20260903150003 | 15 | 170 | 1.6 | 8.0 | 0.00 | 0.00 | 0.00 | 91 | 1015.8 |
| 20260903145524 | 14 | 178 | 1.6 | 6.4 | 0.00 | 0.00 | 0.00 | 91 | 1015.8 |
| 20260903145024 | 14 | 182 | 1.6 | 4.8 | 0.00 | 0.00 | 0.00 | 92 | 1015.8 |
| 20260903144503 | 14 | 184 | 0.0 | 3.2 | 0.00 | 0.00 | 0.00 | 92 | 1015.8 |
| 20260903144024 | 14 | 184 | 0.0 | 3.2 | 0.00 | 0.00 | 0.00 | 92 | 1015.8 |
| 20260903143503 | 13 | 184 | 0.0 | 1.6 | 0.00 | 0.00 | 0.00 | 91 | 1015.8 |
| 20260903143004 | 13 | 184 | 0.0 | 3.2 | 0.00 | 0.00 | 0.00 | 91 | 1015.8 |
| 20260903142503 | 13 | 184 | 1.6 | 4.8 | 0.00 | 0.00 | 0.00 | 91 | 1015.8 |
| 20260903142003 | 13 | 184 | 1.6 | 4.8 | 0.00 | 0.00 | 0.00 | 91 | 1015.8 |
| 20260903141503 | 13 | 184 | 1.6 | 3.2 | 0.00 | 0.00 | 0.00 | 91 | 1015.8 |
| 20260903141003 | 13 | 184 | 1.6 | 4.8 | 0.00 | 0.00 | 0.00 | 91 | 1015.8 |
| 20260903140503 | 13 | 184 | 0.0 | 4.8 | 0.00 | 0.00 | 0.00 | 91 | 1015.8 |
| 20260903140004 | 13 | 184 | 0.0 | 4.8 | 0.00 | 0.00 | 0.00 | 91 | 1015.8 |
| 20260903135503 | 13 | 185 | 1.6 | 4.8 | 0.00 | 0.00 | 0.00 | 91 | 1015.8 |
| 20260903135003 | 13 | 185 | 1.6 | 4.8 | 0.00 | 0.00 | 0.00 | 91 | 1015.8 |
| 20260903134503 | 13 | 186 | 1.6 | 4.8 | 0.00 | 0.00 | 0.00 | 91 | 1015.8 |
| 20260903134003 | 13 | 187 | 3.2 | 4.8 | 0.00 | 0.00 | 0.00 | 91 | 1015.8 |
| 20260903133503 | 13 | 188 | 1.6 | 4.8 | 0.00 | 0.00 | 0.00 | 91 | 1015.8 |
| 20260903133003 | 13 | 189 | 1.6 | 4.8 | 0.00 | 0.00 | 0.00 | 91 | 1015.8 |
| 20260903132524 | 13 | 189 | 1.6 | 4.8 | 0.00 | 0.00 | 0.00 | 91 | 1015.8 |
| 20260903132003 | 13 | 190 | 1.6 | 4.8 | 0.00 | 0.00 | 0.00 | 92 | 1015.8 |
| 20260903131503 | 13 | 190 | 1.6 | 3.2 | 0.00 | 0.00 | 0.00 | 92 | 1015.8 |
| 20260903131003 | 13 | 190 | 1.6 | 4.8 | 0.00 | 0.00 | 0.00 | 92 | 1015.8 |
| 20260903130503 | 13 | 190 | 1.6 | 4.8 | 0.00 | 0.00 | 0.00 | 92 | 1015.8 |
| 20260903130003 | 13 | 191 | 1.6 | 4.8 | 0.00 | 0.00 | 0.00 | 92 | 1015.8 |
| 20260903125503 | 13 | 192 | 1.6 | 3.2 | 0.00 | 0.00 | 0.00 | 92 | 1015.8 |
| 20260903125003 | 13 | 193 | 1.6 | 3.2 | 0.00 | 0.00 | 0.00 | 92 | 1015.8 |
| 20260903124503 | 13 | 193 | 1.6 | 4.8 | 0.00 | 0.00 | 0.00 | 92 | 1015.8 |
| 20260903124003 | 13 | 194 | 1.6 | 4.8 | 0.00 | 0.00 | 0.00 | 92 | 1015.8 |
| 20260903123504 | 13 | 194 | 1.6 | 4.8 | 0.00 | 0.00 | 0.00 | 93 | 1015.8 |
| 20260903123024 | 13 | 194 | 1.6 | 4.8 | 0.00 | 0.00 | 0.00 | 93 | 1015.8 |
| 20260903122503 | 13 | 196 | 1.6 | 3.2 | 0.00 | 0.00 | 0.00 | 93 | 1015.8 |
| 20260903122003 | 13 | 197 | 1.6 | 4.8 | 0.00 | 0.00 | 0.00 | 93 | 1015.8 |
| 20260903121503 | 13 | 198 | 1.6 | 4.8 | 0.00 | 0.00 | 0.00 | 93 | 1015.8 |
| 20260903121003 | 13 | 198 | 0.0 | 3.2 | 0.00 | 0.00 | 0.00 | 93 | 1015.8 |
| 20260903120503 | 13 | 198 | 1.6 | 3.2 | 0.00 | 0.00 | 0.00 | 93 | 1015.8 |
| 20260903120003 | 13 | 198 | 1.6 | 3.2 | 0.00 | 0.00 | 0.00 | 93 | 1015.8 |
| 20260903115503 | 13 | 198 | 0.0 | 3.2 | 0.00 | 0.00 | 0.00 | 93 | 1015.8 |
| 20260903115003 | 13 | 198 | 1.6 | 3.2 | 0.00 | 0.00 | 0.00 | 93 | 1015.8 |
| 20260903114503 | 13 | 198 | 1.6 | 4.8 | 0.00 | 0.00 | 0.00 | 93 | 1015.8 |
| 20260903114024 | 13 | 199 | 1.6 | 4.8 | 0.00 | 0.00 | 0.00 | 93 | 1015.8 |
| 20260903113501 | 13 | 248 | 1.6 | 4.8 | 0.00 | 0.00 | 0.00 | 93 | 1015.8 |
| 20260903113001 | 13 | 281 | 1.6 | 4.8 | 0.00 | 0.00 | 0.00 | 93 | 1015.8 |
| 20260903112501 | 13 | 293 | 1.6 | 4.8 | 0.00 | 0.00 | 0.00 | 93 | 1015.8 |
| 20260903112001 | 13 | 296 | 0.0 | 1.6 | 0.00 | 0.00 | 0.00 | 93 | 1015.8 |
| 20260903111501 | 13 | 296 | 0.0 | 1.6 | 0.00 | 0.00 | 0.00 | 93 | 1015.8 |
| 20260903111002 | 13 | 296 | 0.0 | 3.2 | 0.00 | 0.00 | 0.00 | 93 | 1015.8 |
| 20260903110502 | 13 | 296 | 1.6 | 3.2 | 0.00 | 0.00 | 0.00 | 93 | 1015.8 |
| 20260903110023 | 13 | 296 | 1.6 | 3.2 | 0.00 | 0.00 | 0.00 | 93 | 1015.9 |
| 20260903105502 | 13 | 297 | 1.6 | 3.2 | 0.00 | 0.00 | 0.00 | 92 | 1015.9 |
| 20260903105002 | 13 | 297 | 1.6 | 3.2 | 0.00 | 0.00 | 0.00 | 92 | 1015.9 |
| 20260903104523 | 13 | 297 | 1.6 | 3.2 | 0.00 | 0.00 | 0.00 | 92 | 1015.9 |
| 20260903104002 | 13 | 297 | 0.0 | 3.2 | 0.00 | 0.00 | 0.00 | 92 | 1015.9 |
| 20260903103001 | 13 | 0 | 0.0 | 0.0 | 0.00 | 0.00 | 0.00 | 92 | 1015.9 |
| 20260903102502 | 13 | 0 | 0.0 | 0.0 | 0.00 | 0.00 | 0.00 | 92 | 1015.8 |
| 20260903102002 | 13 | 297 | 0.0 | 4.8 | 0.00 | 0.00 | 0.00 | 92 | 1015.8 |
| 20260903101502 | 13 | 297 | 0.0 | 4.8 | 0.00 | 0.00 | 0.00 | 92 | 1015.8 |
| 20260903101001 | 13 | 299 | 0.0 | 3.2 | 0.00 | 0.00 | 0.00 | 92 | 1015.8 |
| 20260903100501 | 13 | 300 | 0.0 | 3.2 | 0.00 | 0.00 | 0.00 | 92 | 1015.8 |
| 20260903100002 | 13 | 0 | 0.0 | 0.0 | 0.00 | 0.00 | 0.00 | 92 | 1015.8 |
| 20260903095522 | 13 | 0 | 0.0 | 0.0 | 0.00 | 0.00 | 0.00 | 92 | 1015.8 |
| 20260903095023 | 13 | 0 | 0.0 | 0.0 | 0.00 | 0.00 | 0.00 | 92 | 1016.9 |
| 20260903094501 | 13 | 0 | 0.0 | 0.0 | 0.00 | 0.00 | 0.00 | 92 | 1016.9 |
| 20260903094002 | 14 | 0 | 0.0 | 0.0 | 0.00 | 0.00 | 0.00 | 92 | 1016.9 |
| 20260903093502 | 14 | 0 | 0.0 | 0.0 | 0.00 | 0.00 | 0.00 | 92 | 1016.9 |
| 20260903093002 | 14 | 0 | 0.0 | 0.0 | 0.00 | 0.00 | 0.00 | 92 | 1016.9 |
| 20260903092502 | 14 | 0 | 0.0 | 0.0 | 0.00 | 0.00 | 0.00 | 92 | 1016.9 |
| 20260903092023 | 14 | 0 | 0.0 | 0.0 | 0.00 | 0.00 | 0.00 | 92 | 1016.9 |
| 20260903091502 | 14 | 0 | 0.0 | 0.0 | 0.00 | 0.00 | 0.00 | 92 | 1016.9 |
| 20260903091002 | 14 | 0 | 0.0 | 0.0 | 0.00 | 0.00 | 0.00 | 92 | 1016.9 |
| 20260903090502 | 14 | 0 | 0.0 | 0.0 | 0.00 | 0.00 | 0.00 | 92 | 1016.9 |
| 20260903090023 | 14 | 303 | 0.0 | 1.6 | 0.00 | 0.00 | 0.00 | 92 | 1016.9 |
| 20260903085501 | 14 | 303 | 0.0 | 3.2 | 0.00 | 0.00 | 0.00 | 92 | 1016.9 |
| 20260903085002 | 14 | 304 | 0.0 | 3.2 | 0.00 | 0.00 | 0.00 | 92 | 1016.9 |
| 20260903084523 | 14 | 304 | 0.0 | 3.2 | 0.00 | 0.00 | 0.00 | 92 | 1016.9 |
| 20260903084002 | 14 | 304 | 0.0 | 3.2 | 0.00 | 0.00 | 0.00 | 92 | 1016.9 |
| 20260903083502 | 14 | 306 | 0.0 | 3.2 | 0.00 | 0.00 | 0.00 | 92 | 1016.9 |
| 20260903083002 | 14 | 311 | 0.0 | 3.2 | 0.00 | 0.00 | 0.00 | 92 | 1016.9 |
| 20260903082502 | 14 | 314 | 0.0 | 3.2 | 0.00 | 0.00 | 0.00 | 92 | 1016.9 |
| 20260903082023 | 14 | 317 | 0.0 | 3.2 | 0.00 | 0.00 | 0.00 | 92 | 1016.9 |
| 20260903081502 | 14 | 317 | 0.0 | 3.2 | 0.00 | 0.00 | 0.00 | 92 | 1016.9 |
| 20260903081023 | 14 | 0 | 0.0 | 0.0 | 0.00 | 0.00 | 0.00 | 92 | 1016.9 |
| 20260903080502 | 14 | 317 | 0.0 | 1.6 | 0.00 | 0.00 | 0.00 | 92 | 1016.9 |
| 20260903080023 | 14 | 317 | 0.0 | 1.6 | 0.00 | 0.00 | 0.00 | 92 | 1016.9 |
| 20260903075502 | 14 | 317 | 0.0 | 3.2 | 0.00 | 0.00 | 0.00 | 92 | 1016.9 |
| 20260903075002 | 14 | 317 | 0.0 | 3.2 | 0.00 | 0.00 | 0.00 | 92 | 1016.9 |
| 20260903074502 | 14 | 317 | 0.0 | 4.8 | 0.00 | 0.00 | 0.00 | 91 | 1016.9 |
| 20260903074002 | 14 | 317 | 0.0 | 4.8 | 0.00 | 0.00 | 0.00 | 92 | 1016.9 |
| 20260903073502 | 14 | 317 | 0.0 | 3.2 | 0.00 | 0.00 | 0.00 | 91 | 1016.9 |
| 20260903073002 | 14 | 317 | 0.0 | 3.2 | 0.00 | 0.00 | 0.00 | 91 | 1016.9 |
| 20260903072504 | 14 | 317 | 0.0 | 1.6 | 0.00 | 0.00 | 0.00 | 91 | 1016.9 |
| 20260903072002 | 14 | 317 | 0.0 | 1.6 | 0.00 | 0.00 | 0.00 | 92 | 1016.9 |
| 20260903071502 | 14 | 317 | 0.0 | 1.6 | 0.00 | 0.00 | 0.00 | 91 | 1016.9 |
| 20260903071002 | 14 | 317 | 0.0 | 1.6 | 0.00 | 0.00 | 0.00 | 91 | 1016.9 |
| 20260903070502 | 14 | 317 | 0.0 | 1.6 | 0.00 | 0.00 | 0.00 | 91 | 1016.9 |
| 20260903070012 | 14 | 319 | 0.0 | 3.2 | 0.00 | 0.00 | 0.00 | 91 | 1016.9 |
| 20260903065502 | 14 | 320 | 0.0 | 3.2 | 0.00 | 0.00 | 0.00 | 91 | 1016.9 |
| 20260903065023 | 14 | 321 | 0.0 | 3.2 | 0.00 | 0.00 | 0.00 | 91 | 1016.9 |
| 20260903064523 | 14 | 328 | 0.0 | 3.2 | 0.00 | 0.00 | 0.00 | 91 | 1016.9 |
| 20260903064023 | 14 | 331 | 0.0 | 3.2 | 0.00 | 0.00 | 0.00 | 91 | 1016.9 |
| 20260903063523 | 14 | 340 | 0.0 | 3.2 | 0.00 | 0.00 | 0.00 | 91 | 1016.9 |
| 20260903063002 | 14 | 340 | 0.0 | 3.2 | 0.00 | 0.00 | 0.00 | 91 | 1016.9 |
| 20260903062502 | 14 | 340 | 0.0 | 3.2 | 0.00 | 0.00 | 0.00 | 91 | 1016.9 |
| 20260903062002 | 14 | 340 | 0.0 | 1.6 | 0.00 | 0.00 | 0.00 | 91 | 1016.9 |
| 20260903061502 | 14 | 341 | 0.0 | 1.6 | 0.00 | 0.00 | 0.00 | 90 | 1016.9 |
| 20260903061023 | 14 | 340 | 0.0 | 3.2 | 0.00 | 0.00 | 0.00 | 90 | 1016.9 |
| 20260903060502 | 14 | 339 | 0.0 | 3.2 | 0.00 | 0.00 | 0.00 | 90 | 1016.9 |
| 20260903060002 | 14 | 338 | 0.0 | 1.6 | 0.00 | 0.00 | 0.00 | 90 | 1016.9 |
| 20260903055502 | 14 | 338 | 0.0 | 1.6 | 0.00 | 0.00 | 0.00 | 90 | 1016.9 |
| 20260903055002 | 14 | 338 | 0.0 | 4.8 | 0.00 | 0.00 | 0.00 | 90 | 1016.9 |
| 20260903054523 | 14 | 338 | 0.0 | 4.8 | 0.00 | 0.00 | 0.00 | 90 | 1016.9 |
| 20260903054002 | 14 | 340 | 0.0 | 3.2 | 0.00 | 0.00 | 0.00 | 90 | 1016.9 |
| 20260903053502 | 14 | 340 | 0.0 | 3.2 | 0.00 | 0.00 | 0.00 | 89 | 1016.5 |
| 20260903053002 | 14 | 340 | 0.0 | 3.2 | 0.00 | 0.00 | 0.00 | 89 | 1016.5 |
| 20260903052523 | 14 | 342 | 0.0 | 3.2 | 0.00 | 0.00 | 0.00 | 89 | 1016.5 |
| 20260903052002 | 14 | 337 | 1.6 | 6.4 | 0.00 | 0.00 | 0.00 | 89 | 1016.5 |
| 20260903051502 | 14 | 334 | 1.6 | 6.4 | 0.00 | 0.00 | 0.00 | 89 | 1016.5 |
| 20260903051002 | 14 | 325 | 0.0 | 4.8 | 0.00 | 0.00 | 0.00 | 89 | 1016.5 |
| 20260903050502 | 14 | 327 | 0.0 | 4.8 | 0.00 | 0.00 | 0.00 | 88 | 1016.5 |
| 20260903050002 | 14 | 324 | 0.0 | 4.8 | 0.00 | 0.00 | 0.00 | 88 | 1016.5 |
| 20260903045502 | 15 | 317 | 1.6 | 8.0 | 0.00 | 0.00 | 0.00 | 88 | 1016.5 |
| 20260903045002 | 15 | 318 | 1.6 | 8.0 | 0.00 | 0.00 | 0.00 | 88 | 1016.5 |
| 20260903044523 | 15 | 306 | 1.6 | 6.4 | 0.00 | 0.00 | 0.00 | 88 | 1016.5 |